Waarnemingen

Advertentie
Mijn weer
London/Heathrow Intl, Groot Brittannië (3772): temperatuur & dauwpunt: 16.05.2019 02:00:00 - 22.05.2019 02:00:00 (BST)London/Heathrow Intl, Groot Brittannië (3772): windsnelheid & windstoten: 16.05.2019 02:00:00 - 22.05.2019 02:00:00 (BST)London/Heathrow Intl, Groot Brittannië (3772): windrichting: 16.05.2019 02:00:00 - 22.05.2019 02:00:00 (BST)London/Heathrow Intl, Groot Brittannië (3772): luchtdruk: 16.05.2019 02:00:00 - 22.05.2019 02:00:00 (BST)London/Heathrow Intl, Groot Brittannië (3772): zicht: 16.05.2019 02:00:00 - 22.05.2019 02:00:00 (BST)London/Heathrow Intl, Groot Brittannië (3772): Zonneschijnduur: 16.05.2019 02:00:00 - 22.05.2019 02:00:00 (BST)London/Heathrow Intl, Groot Brittannië (3772): neerslag: 16.05.2019 02:00:00 - 22.05.2019 02:00:00 (BST)
Datum & Tijd tt [°C] td [°C] ff [km/u] ff [kn] fx [km/u] fx [kn] dd ppp [hPa] vv [km] sd [min] rr [mm]
22.05.2019 02:00:00 - - - - - - - - - - -
22.05.2019 01:00:00 12,0 5,2 4 2 - - - 1019,9 10 - 0,0
22.05.2019 00:00:00 14,1 4,8 8 4 - - N 1020,0 50 0 0,0
21.05.2019 23:00:00 14,9 5,9 5 3 - - N 1019,8 10 0 0,0
21.05.2019 22:00:00 16,3 6,0 8 4 - - N 1019,6 10 0 0,0
21.05.2019 21:00:00 16,9 5,9 8 4 - - NW 1019,2 40 18 0,0
21.05.2019 20:00:00 18,9 5,8 9 5 - - NNW 1018,8 10 60 0,0
21.05.2019 19:00:00 19,7 5,0 13 7 - - N 1018,6 10 54 0,0
21.05.2019 18:00:00 19,5 5,4 13 7 - - NW 1018,5 10 18 0,0
21.05.2019 17:00:00 20,0 5,5 13 7 - - NW 1018,5 10 36 0,0
21.05.2019 16:00:00 20,3 5,3 15 8 - - NW 1018,4 10 48 0,0
21.05.2019 15:00:00 20,3 5,7 13 7 - - NW 1018,5 70 48 0,0
21.05.2019 14:00:00 19,5 5,9 9 5 - - NW 1018,5 10 48 0,0
21.05.2019 13:00:00 19,2 6,1 15 8 - - NNW 1018,5 45 60 0,0
21.05.2019 12:00:00 18,3 6,0 13 7 - - NW 1018,5 10 60 0,0
21.05.2019 11:00:00 17,7 5,7 13 7 - - NW 1018,4 10 60 0,0
21.05.2019 10:00:00 16,2 6,9 11 6 - - NW 1018,5 10 60 0,0
21.05.2019 09:00:00 14,5 7,0 11 6 - - NW 1018,6 10 60 0,0
21.05.2019 08:00:00 13,1 7,3 4 2 - - - 1018,3 35 60 0,0
21.05.2019 07:00:00 11,2 7,0 5 3 - - - 1017,6 30 36 0,0
21.05.2019 06:00:00 9,9 6,6 5 3 - - WNW 1017,2 10 0 0,0
21.05.2019 05:00:00 10,0 6,6 8 4 - - WNW 1016,9 10 0 0,0
21.05.2019 04:00:00 10,3 6,6 5 3 - - - 1016,5 10 0 0,0
21.05.2019 03:00:00 11,4 7,1 8 4 - - N 1016,1 10 0 0,0
21.05.2019 02:00:00 11,3 7,2 8 4 - - NW 1015,9 10 0 0,0
21.05.2019 01:00:00 12,6 7,6 5 3 - - - 1015,8 10 - 0,0
21.05.2019 00:00:00 13,0 7,9 5 3 - - WNW 1015,6 10 0 0,0
20.05.2019 23:00:00 14,2 7,7 4 2 - - NW 1015,3 10 0 0,0
20.05.2019 22:00:00 15,2 7,8 8 4 - - NW 1014,8 10 0 0,0
20.05.2019 21:00:00 16,7 7,7 5 3 - - NW 1014,2 10 6 0,0
20.05.2019 20:00:00 18,3 7,3 5 3 - - - 1013,8 10 0 0,0
20.05.2019 19:00:00 18,1 8,2 13 7 - - NW 1013,5 10 0 0,0
20.05.2019 18:00:00 19,2 7,5 8 4 - - NNW 1013,1 10 6 0,0
20.05.2019 17:00:00 19,9 7,8 9 5 - - N 1013,0 10 12 0,0
20.05.2019 16:00:00 19,5 7,9 9 5 - - N 1012,9 10 - 0,0
20.05.2019 15:00:00 18,0 9,0 11 6 - - NW - 10 - -
20.05.2019 14:00:00 18,4 8,8 11 6 - - NNW 1012,9 10 6 0,0
20.05.2019 13:00:00 17,8 8,3 11 6 - - NW 1012,8 35 24 0,0
20.05.2019 12:00:00 19,2 9,4 13 7 - - NNW 1012,6 50 36 0,0
20.05.2019 11:00:00 17,5 9,4 11 6 - - N 1012,5 10 54 0,0
20.05.2019 10:00:00 16,3 10,1 9 5 - - NW 1012,6 10 36 0,0
20.05.2019 09:00:00 14,6 9,7 9 5 - - N 1012,4 10 0 0,0
20.05.2019 08:00:00 13,6 10,2 8 4 - - N 1012,0 10 0 0,0
20.05.2019 07:00:00 12,7 10,1 9 5 - - NW 1011,6 10 0 0,0
20.05.2019 06:00:00 12,5 10,1 8 4 - - NNW 1011,3 8 0 0,0
20.05.2019 05:00:00 12,5 10,3 4 2 - - - 1011,1 10 0 0,0
20.05.2019 04:00:00 12,6 9,7 5 3 - - NW 1011,0 10 0 0,0
20.05.2019 03:00:00 12,8 10,3 5 3 - - - 1010,9 10 0 0,0
20.05.2019 02:00:00 13,3 10,2 8 4 - - N 1011,1 10 0 0,0
20.05.2019 01:00:00 13,7 10,2 5 3 - - - 1011,1 10 - 0,0
20.05.2019 00:00:00 13,7 9,7 5 3 - - - 1011,2 10 0 0,0
19.05.2019 23:00:00 15,3 9,7 5 3 - - - 1011,0 10 0 0,0
19.05.2019 22:00:00 15,9 8,5 5 3 - - - 1010,9 10 0 0,0
19.05.2019 21:00:00 16,5 8,6 5 3 - - NO 1010,4 10 0 0,0
19.05.2019 20:00:00 17,5 8,3 8 4 - - NNO 1009,9 10 0 0,0
19.05.2019 19:00:00 18,0 9,1 2 1 - - ZW 1009,5 23 12 0,0
19.05.2019 18:00:00 17,4 9,5 4 2 - - O 1009,5 25 0 0,0
19.05.2019 17:00:00 17,4 9,6 9 5 - - OZO 1009,7 10 6 0,0
19.05.2019 16:00:00 18,0 8,8 8 4 - - NNW 1009,7 20 0 0,0
19.05.2019 15:00:00 17,6 9,9 8 4 - - ONO 1009,8 10 0 0,0
19.05.2019 14:00:00 17,4 10,0 11 6 - - ONO 1010,1 10 0 0,0
19.05.2019 13:00:00 16,3 8,7 8 4 - - N 1010,2 30 0 0,0
19.05.2019 12:00:00 15,5 9,6 9 5 - - N 1010,1 10 0 0,0
19.05.2019 11:00:00 14,5 9,7 8 4 - - N 1010,0 10 0 0,0
19.05.2019 10:00:00 13,3 9,8 5 3 - - - 1009,9 10 0 0,0
19.05.2019 09:00:00 12,3 10,3 8 4 - - NNO 1009,6 10 0 0,0
19.05.2019 08:00:00 11,2 9,8 5 3 - - NNO 1009,3 8 0 0,0
19.05.2019 07:00:00 9,9 9,1 5 3 - - N 1009,2 9 0 0,0
19.05.2019 06:00:00 8,2 7,6 2 1 - - NW 1009,0 7 0 0,0
19.05.2019 05:00:00 8,9 8,3 4 2 - - N 1008,7 6 0 0,0
19.05.2019 04:00:00 8,7 8,1 5 3 - - N 1008,7 5 0 0,0
19.05.2019 03:00:00 9,1 8,1 4 2 - - NNW 1008,6 12 0 0,0
19.05.2019 02:00:00 10,0 8,6 5 3 - - N 1008,4 10 0 0,0
19.05.2019 01:00:00 10,6 8,7 5 3 - - N 1008,5 10 - 0,0
19.05.2019 00:00:00 11,8 9,3 4 2 - - NO 1008,6 10 0 0,0
18.05.2019 23:00:00 12,5 9,2 4 2 - - N 1008,4 27 0 0,0
18.05.2019 22:00:00 13,3 9,2 5 3 - - NNO 1008,3 35 0 0,0
18.05.2019 21:00:00 14,2 8,9 5 3 - - NNO 1008,0 45 0 0,0
18.05.2019 20:00:00 14,9 8,6 5 3 - - NNO 1007,7 65 0 0,0
18.05.2019 19:00:00 15,6 9,5 11 6 - - NNW 1007,2 10 0 0,0
18.05.2019 18:00:00 16,5 8,8 9 5 - - NNW 1006,7 30 0 0,0
18.05.2019 17:00:00 16,3 8,7 11 6 - - WNW 1006,4 10 0 0,0
18.05.2019 16:00:00 16,9 8,4 11 6 - - WNW 1006,3 28 0 0,0
18.05.2019 15:00:00 16,8 8,3 4 2 - - - 1006,3 10 0 0,0
18.05.2019 14:00:00 16,4 8,4 11 6 - - ZO 1006,4 10 0 0,0
18.05.2019 13:00:00 15,7 7,3 2 1 - - - 1006,2 10 30 0,0
18.05.2019 12:00:00 15,8 8,0 5 3 - - - 1006,5 10 6 0,0
18.05.2019 11:00:00 14,4 8,7 4 2 - - - 1006,5 10 0 0,0
18.05.2019 10:00:00 14,1 8,1 4 2 - - - 1006,5 10 0 0,0
18.05.2019 09:00:00 13,1 8,9 4 2 - - - 1006,4 10 0 0,0
18.05.2019 08:00:00 12,0 8,4 4 2 - - - 1006,2 9 0 0,0
18.05.2019 07:00:00 10,9 9,3 4 2 - - - 1006,1 7 0 0,0
18.05.2019 06:00:00 10,3 9,3 4 2 - - N 1006,0 7 0 0,0
18.05.2019 05:00:00 9,9 9,0 4 2 - - NO 1005,9 8 0 0,0
18.05.2019 04:00:00 10,0 9,0 5 3 - - - 1006,1 7 0 0,0
18.05.2019 03:00:00 10,6 9,3 5 3 - - - 1006,5 7 0 0,0
18.05.2019 02:00:00 11,0 9,4 8 4 - - N 1006,7 8 0 0,0
18.05.2019 01:00:00 11,0 9,4 8 4 - - N 1006,9 9 - 0,0
18.05.2019 00:00:00 11,2 9,3 4 2 - - N 1007,1 15 0 0,0
17.05.2019 23:00:00 11,3 9,3 8 4 - - NNO 1007,2 15 0 0,0
17.05.2019 22:00:00 11,5 9,6 8 4 - - N 1007,4 10 0 0,0
17.05.2019 21:00:00 11,8 9,9 9 5 - - NNO 1007,4 10 0 0,0
17.05.2019 20:00:00 11,9 10,0 9 5 - - NO 1007,2 5 0 0,0
17.05.2019 19:00:00 12,2 10,6 8 4 - - NO 1007,0 10 0 0,0
17.05.2019 18:00:00 12,4 9,9 15 8 - - ONO 1007,4 5 0 0,0
17.05.2019 17:00:00 13,2 9,1 13 7 - - ONO 1007,5 10 0 0,0
17.05.2019 16:00:00 13,2 9,5 8 4 - - NO 1007,9 10 0 0,0
17.05.2019 15:00:00 13,4 9,1 13 7 - - NO 1008,2 21 0 0,0
17.05.2019 14:00:00 14,1 8,1 16 9 - - NO 1008,3 27 0 0,0
17.05.2019 13:00:00 14,7 8,1 13 7 - - ONO 1008,3 10 0 0,0
17.05.2019 12:00:00 13,6 8,1 15 8 - - NO 1008,5 27 0 0,0
17.05.2019 11:00:00 13,4 8,4 13 7 - - NNO 1008,6 10 6 0,0
17.05.2019 10:00:00 14,0 8,9 16 9 - - NO 1008,9 10 24 0,0
17.05.2019 09:00:00 11,5 7,8 15 8 - - NO 1009,4 10 0 0,0
17.05.2019 08:00:00 11,6 7,3 15 8 - - NO 1009,9 10 0 0,0
17.05.2019 07:00:00 11,1 7,5 13 7 - - NNO 1010,2 10 0 0,0
17.05.2019 06:00:00 10,6 7,5 11 6 - - NNO 1010,5 10 0 0,0
17.05.2019 05:00:00 9,9 7,0 8 4 - - N 1011,0 10 0 0,0
17.05.2019 04:00:00 9,3 6,4 9 5 - - NNO 1011,5 10 0 0,0
17.05.2019 03:00:00 8,5 5,1 8 4 - - N 1012,2 10 0 0,0
17.05.2019 02:00:00 8,9 5,4 8 4 - - NO 1013,0 10 0 0,0
17.05.2019 01:00:00 9,6 4,9 13 7 - - NO 1013,8 10 - 0,0
17.05.2019 00:00:00 10,4 4,3 13 7 - - ONO 1014,4 10 0 0,0
16.05.2019 23:00:00 11,2 3,5 13 7 - - NO 1015,1 50 0 0,0
16.05.2019 22:00:00 12,2 2,4 13 7 - - NO 1015,5 10 0 0,0
16.05.2019 21:00:00 13,1 2,2 15 8 - - ONO 1015,3 55 18 0,0
16.05.2019 20:00:00 14,6 1,4 18 10 - - ONO 1015,4 10 48 0,0
16.05.2019 19:00:00 15,7 1,2 15 8 - - ONO 1015,6 10 60 0,0
16.05.2019 18:00:00 16,0 0,4 28 15 - - O 1016,0 10 54 0,0
16.05.2019 17:00:00 17,6 2,2 21 11 - - O 1016,3 10 54 0,0
16.05.2019 16:00:00 18,2 1,2 21 11 - - O 1016,9 10 54 0,0
16.05.2019 15:00:00 17,9 2,5 15 8 46 25 ONO 1017,6 10 42 0,0
16.05.2019 14:00:00 17,9 4,0 21 11 - - O 1018,3 10 36 0,0
16.05.2019 13:00:00 16,8 5,0 16 9 - - O 1018,9 10 6 0,0
16.05.2019 12:00:00 17,4 3,9 15 8 - - O 1019,5 35 48 0,0
16.05.2019 11:00:00 17,2 3,9 18 10 - - O 1020,0 30 60 0,0
16.05.2019 10:00:00 15,9 7,3 13 7 - - O 1020,4 10 60 0,0
16.05.2019 09:00:00 14,0 8,0 13 7 - - ONO 1021,0 10 60 0,0
16.05.2019 08:00:00 11,7 7,5 13 7 - - ONO 1021,0 17 60 0,0
16.05.2019 07:00:00 9,7 6,5 8 4 - - NO 1021,3 10 36 0,0
16.05.2019 06:00:00 7,6 5,4 5 3 - - - 1021,3 10 0 0,0
16.05.2019 05:00:00 7,6 4,9 8 4 - - NO 1021,3 10 0 0,0
16.05.2019 04:00:00 8,1 4,8 8 4 - - NO 1021,7 10 0 0,0
16.05.2019 03:00:00 8,7 5,1 8 4 - - NO 1022,2 10 0 0,0
16.05.2019 02:00:00 9,0 6,0 11 6 - - NO - 10 - -

tt = temperatuur
td = dauwpunt
ff = windsnelheid
fx = windstoten
dd = windrichting
ppp = luchtdruk
vv = zicht
sd = Zonneschijnduur
rr = neerslag

Weerstations in de omgeving